Temperature
7 6 6 6 6 5 5 5 5 4 4 5 5 5 5 5 5 5 5 5 5 5 5 5 5 5 5 5 5 5 5 5 5 5 5 5 5 5
6 6 6 6 5 5 5 5 5 4 4 4 4 4 5 5 4 4 5 5 5 5 5 5 5 5 5 5 5 5 5 5 5 5 5 5 5 5
6 6 6 5 5 5 5 5 5 4 4 4 4 4 4 4 4 4 4 4 4 4 4 4 4 4 4 4 4 4 4 4 4 5 4 4 4 4
6 6 5 5 5 5 5 4 4 4 4 4 4 4 4 4 4 4 4 4 4 4 4 4 4 4 4 4 4 4 4 4 4 4 4 4 4 4
5 5 5 5 5 5 4 4 4 4 3 3 4 4 4 4 4 4 4 4 4 4 4 4 4 4 4 4 4 4 4 4 4 3 3 4 4 4
5 5 5 5 5 4 4 4 3 3 3 3 3 3 3 3 3 3 4 4 4 4 3 3 3 3 4 3 3 3 3 3 3 3 3 3 3 3
5 4 4 4 4 4 4 4 3 3 3 3 3 3 3 3 3 3 3 3 3 3 3 3 3 3 3 3 3 3 3 3 3 3 3 3 3 3
4 4 4 4 4 4 4 3 3 3 3 3 3 2 3 2 2 2 2 2 2 3 3 3 3 3 3 3 3 3 3 3 3 3 3 3 3 3
4 4 4 4 4 4 3 3 3 3 2 2 2 2 2 2 2 2 2 2 2 2 2 3 3 3 3 3 2 2 2 2 2 2 2 2 2 2
3 3 3 3 3 3 3 3 3 3 2 2 2 2 2 2 2 2 2 2 2 2 2 2 3 3 3 3 2 2 2 2 2 2 2 2 2 2
3 3 3 3 3 3 3 3 3 3 2 2 2 2 2 2 2 2 2 1 2 2 2 1 2 2 3 3 2 2 2 2 2 2 2 2 2 2
3 2 2 2 2 2 2 2 2 2 2 2 2 2 2 2 2 1 1 1 1 1 1 1 1 1 1 2 2 2 2 2 2 1 1 1 1 1
2 2 2 2 2 2 2 2 2 1 2 2 2 2 2 2 1 1 1 1 1 1 1 1 1 1 0 1 2 2 1 1 1 1 1 1 1 1
2 2 2 2 2 2 1 1 1 1 1 1 1 2 1 1 1 1 1 1 1 1 1 0 0 0 0 0 0 1 1 1 1 1 1 1 1 1
1 1 1 1 1 1 1 1 1 1 1 1 1 1 1 1 1 1 1 1 1 1 1 0 0 1 0 0 0 0 1 1 1 1 1 1 1 0
1 1 1 1 1 1 1 1 1 1 1 1 1 1 1 1 1 1 1 1 1 1 1 0 0 0 0 0 0 0 0 -0 0 0 0 1 0 0
0 0 0 1 1 1 1 1 1 0 0 0 0 0 0 0 0 0 0 0 0 0 0 0 0 0 0 0 0 -0 -0 -0 -0 -0 -0 0 0 0
-1 -0 -0 0 0 0 0 0 0 0 0 -0 -0 0 -0 -0 -0 -0 -0 -0 -0 -0 -0 -0 0 0 0 -0 -0 -1 -1 -1 -1 -1 -1 -1 -0 0
-1 -1 -1 -1 -0 -0 -0 -0 -0 -0 -0 -0 -0 -0 -0 -0 -0 -0 -0 -0 -0 -0 -1 -1 -1 -1 -1 -1 -1 -1 -1 -1 -1 -1 -1 -1 -1 -0
-1 -1 -1 -1 -1 -1 -1 -0 -0 -0 -0 -0 -0 -0 -0 -0 -0 -0 -0 -1 -1 -1 -1 -1 -1 -1 -2 -2 -2 -1 -1 -2 -2 -1 -1 -1 -1 -0
-2 -2 -2 -1 -1 -1 -1 -1 -1 -1 -1 -1 -0 -0 -0 -0 -0 -1 -1 -1 -1 -1 -1 -1 -1 -2 -2 -2 -2 -1 -1 -1 -2 -2 -2 -1 -1 -1
-2 -2 -2 -2 -2 -1 -1 -1 -1 -1 -1 -1 -1 -1 -0 -0 -1 -1 -1 -1 -1 -1 -1 -1 -1 -2 -1 -2 -2 -2 -1 -1 -1 -1 -2 -2 -2 -2
-3 -2 -2 -2 -2 -2 -2 -1 -1 -1 -1 -1 -1 -1 -1 -1 -1 -1 -1 -1 -1 -1 -2 -2 -1 -1 -2 -2 -2 -2 -2 -1 -1 -1 -1 -2 -2 -2
Wind_Speed
2 2 2 2 1 1 1 1 1 3 4 3 2 3 5 6 8 8 7 10 12 12 12 12 11 11 11 11 11 11 11 12 11 11 11 11 11 10
2 2 2 2 2 1 1 1 1 2 3 3 3 4 5 6 8 7 7 10 10 10 11 12 11 11 11 11 10 11 11 12 12 12 12 11 11 11
2 2 3 2 2 2 1 1 1 1 4 4 3 4 4 4 5 6 7 6 7 10 11 11 11 11 11 10 10 11 12 12 13 13 12 12 12 12
2 2 3 2 2 2 2 2 2 2 2 5 5 4 4 4 4 4 5 6 6 9 11 11 11 11 11 10 11 11 12 12 13 13 13 13 13 13
3 3 3 2 3 3 3 3 2 2 2 3 5 4 3 3 4 5 5 4 6 8 10 10 11 11 11 11 11 11 12 12 13 13 13 13 14 14
3 3 3 3 4 4 3 3 2 2 2 2 4 4 3 3 3 4 5 4 5 6 7 9 10 10 11 12 12 12 12 12 13 13 13 13 13 13
3 3 3 3 3 3 2 2 1 1 2 2 3 3 3 3 4 3 4 5 5 3 4 6 6 6 7 10 11 11 12 12 13 13 13 13 13 13
3 3 3 2 3 3 2 2 1 2 2 2 3 3 4 4 4 3 3 4 4 3 4 6 5 5 6 6 10 12 12 13 13 13 14 14 13 13
2 2 2 2 2 2 2 2 2 2 3 3 3 4 4 4 3 3 3 4 4 4 4 4 4 5 6 8 11 11 12 13 14 14 14 14 14 14
2 2 3 2 2 1 1 2 2 3 3 3 3 3 3 3 3 3 3 3 3 3 2 2 3 4 7 7 9 10 12 14 15 15 15 15 15 15
2 2 2 3 3 1 1 1 3 3 3 3 3 3 3 2 1 1 2 2 4 3 2 1 3 4 4 4 7 11 13 14 15 15 15 15 16 15
2 2 2 3 3 1 1 1 2 3 2 2 2 3 2 1 2 1 1 2 3 2 1 2 2 3 3 3 4 7 9 12 14 15 15 16 16 11
2 2 2 3 3 3 1 1 2 2 1 1 1 2 2 2 2 2 1 2 2 2 2 1 2 2 2 3 4 4 5 6 8 10 14 16 16 12
2 2 2 2 2 2 2 2 1 1 1 0 1 1 2 3 3 3 2 2 1 2 3 2 1 2 3 3 4 5 6 6 6 7 9 14 14 14
2 2 2 2 2 2 1 1 1 0 0 0 1 2 2 2 2 2 3 3 4 3 2 2 2 2 2 2 3 4 5 5 5 6 7 7 7 8
1 1 1 1 1 1 1 1 1 0 0 1 1 2 2 1 2 2 2 3 3 4 4 4 3 2 2 3 3 4 4 4 6 7 7 7 7 7
1 0 0 0 0 1 1 1 1 1 1 1 1 1 1 2 2 2 2 2 2 3 4 5 6 4 3 2 2 3 4 5 5 6 6 7 7 6
1 0 0 0 1 1 1 1 1 1 1 1 1 1 1 1 2 2 2 2 2 2 3 4 5 5 4 2 2 3 4 4 5 6 5 6 7 7
1 0 1 1 1 1 1 1 2 1 1 1 1 1 1 1 1 1 1 2 2 2 3 3 3 3 4 5 4 2 3 5 6 6 5 5 6 8
1 1 1 1 1 1 1 1 1 1 1 1 1 1 1 1 1 1 1 1 2 2 3 2 2 2 2 3 3 4 5 4 4 5 6 6 5 8
1 1 1 1 1 2 2 1 1 1 1 1 1 1 1 1 1 1 1 1 1 1 2 3 4 5 3 2 3 4 4 6 5 4 5 5 5 5
2 2 2 2 2 2 1 1 1 1 1 1 1 1 1 1 1 1 1 1 1 1 2 3 3 3 2 2 3 5 5 7 8 8 6 4 2 3
2 2 2 2 2 1 2 2 2 2 2 1 1 1 1 1 1 1 1 1 0 1 2 3 3 2 2 2 3 4 5 6 6 6 5 7 8 9
Wind_Direction
222 227 239 255 242 239 221 211 229 295 297 278 299 303 307 312 322 325 321 330 337 340 342 342 345 346 344 345 346 347 346 343 339 335 331 329 326 320
226 223 240 254 253 251 238 248 237 244 278 281 288 303 305 316 325 330 327 336 341 344 350 350 348 348 349 349 349 349 348 346 341 338 336 331 326 322
256 244 246 246 246 255 248 248 265 257 286 298 301 311 312 317 326 330 331 333 340 348 351 352 352 351 349 350 350 348 347 346 343 340 336 331 329 326
251 259 266 254 247 252 249 252 257 259 276 301 312 314 311 310 322 333 340 339 340 345 351 353 354 355 354 353 351 348 347 348 346 343 339 335 332 329
245 246 259 256 251 260 259 258 263 282 291 292 303 310 317 326 337 336 337 340 340 341 347 352 354 357 358 356 353 351 350 348 346 343 341 337 334 333
260 255 252 251 250 252 256 259 270 289 306 299 309 315 319 323 329 334 335 340 336 341 346 345 347 354 357 354 353 354 353 350 346 342 340 339 336 334
276 270 269 271 290 265 263 262 257 279 295 299 308 319 320 327 320 317 319 328 327 330 334 338 340 347 350 348 351 353 352 349 346 342 340 339 338 334
277 280 280 278 294 309 289 280 265 253 265 272 292 292 297 308 311 312 318 325 317 324 332 321 332 329 334 343 344 348 350 348 347 346 344 340 338 335
279 280 287 290 311 282 300 307 286 286 264 250 259 275 279 282 281 298 307 311 296 299 318 307 320 321 325 332 340 348 351 354 352 348 346 344 342 337
266 269 273 273 280 307 313 318 285 276 285 276 253 266 276 276 260 262 278 307 300 307 320 298 310 313 322 328 337 349 352 354 353 351 350 347 345 343
281 277 283 275 277 311 311 309 304 294 319 324 333 341 339 336 359 10 330 325 316 310 340 315 306 317 314 318 335 344 347 350 351 352 351 351 349 346
288 278 281 294 297 302 260 262 291 290 298 330 351 353 355 349 7 2 275 293 310 300 308 335 316 338 323 306 319 332 340 344 348 349 350 350 349 347
268 275 279 297 308 307 309 271 283 313 297 306 326 343 354 356 357 354 330 286 275 277 288 325 310 319 302 303 311 317 330 333 338 341 344 346 347 348
268 275 285 299 300 301 303 318 357 28 357 58 2 344 344 341 339 348 356 6 350 271 260 276 281 293 312 310 305 317 323 328 334 335 336 339 342 341
276 289 298 303 297 295 320 358 47 18 287 341 321 321 321 318 341 353 5 18 22 21 358 312 301 295 287 285 300 313 320 320 332 338 335 332 329 333
293 290 323 351 6 359 1 356 345 318 310 281 321 337 346 351 350 342 336 343 353 349 352 349 330 303 296 292 291 308 315 313 327 333 332 327 324 325
36 18 29 59 28 3 12 14 4 358 1 352 346 352 357 359 346 345 347 352 357 344 344 347 351 335 282 262 302 313 320 321 324 333 334 330 325 326
110 182 210 229 249 290 301 319 326 330 334 349 356 348 329 325 338 346 355 358 357 346 342 343 351 357 357 328 253 298 326 325 330 332 333 329 327 330
139 217 242 244 263 278 286 286 294 307 316 305 329 322 301 301 325 334 347 354 356 347 339 345 358 12 4 340 323 313 323 327 332 333 331 326 317 319
236 235 250 251 251 256 266 284 302 317 319 307 299 315 281 266 287 300 305 333 340 341 344 349 353 348 325 300 302 311 315 315 322 324 327 324 314 309
255 251 253 252 256 252 259 272 277 276 287 292 281 282 289 283 272 272 279 316 348 341 335 326 310 317 317 337 333 328 325 322 317 306 315 325 332 344
261 253 248 246 245 243 251 256 268 274 276 283 284 277 280 283 255 238 245 264 298 310 310 316 325 342 6 359 329 323 327 332 335 331 317 304 321 336
271 272 263 248 242 243 242 248 254 262 267 276 276 273 274 285 287 252 225 245 297 326 338 340 343 353 345 327 325 324 326 333 341 348 349 338 323 303
Height
1508 1507 1507 1506 1506 1505 1504 1503 1501 1497 1494 1492 1491 1490 1488 1485 1483 1480 1478 1475 1472 1469 1467 1464 1462 1460 1458 1456 1454 1452 1450 1448 1446 1444 1442 1440 1439 1437
1504 1504 1504 1503 1503 1502 1501 1500 1499 1497 1493 1491 1489 1488 1486 1483 1481 1478 1476 1473 1470 1468 1465 1463 1460 1459 1456 1454 1452 1450 1447 1445 1443 1441 1439 1437 1435 1433
1501 1501 1500 1500 1499 1499 1498 1497 1496 1494 1491 1488 1487 1485 1483 1481 1478 1476 1473 1470 1468 1466 1463 1461 1459 1457 1454 1452 1450 1447 1445 1442 1440 1438 1436 1434 1431 1429
1498 1497 1497 1497 1496 1495 1495 1494 1493 1491 1490 1486 1484 1482 1480 1478 1476 1474 1471 1469 1466 1464 1462 1459 1457 1455 1452 1450 1447 1445 1442 1440 1437 1435 1433 1430 1428 1425
1495 1494 1494 1493 1493 1492 1491 1490 1489 1488 1487 1484 1481 1480 1478 1476 1474 1471 1469 1467 1465 1462 1460 1458 1455 1453 1450 1447 1445 1442 1440 1437 1434 1432 1429 1427 1424 1421
1491 1491 1490 1490 1489 1489 1488 1487 1486 1485 1484 1482 1479 1477 1475 1474 1472 1469 1466 1464 1462 1460 1458 1456 1454 1451 1448 1445 1442 1440 1437 1434 1432 1429 1426 1423 1421 1418
1488 1487 1487 1487 1486 1485 1484 1483 1482 1481 1480 1479 1476 1474 1472 1471 1469 1467 1465 1463 1460 1459 1456 1454 1452 1449 1446 1443 1440 1438 1435 1432 1429 1426 1423 1420 1417 1415
1484 1484 1484 1483 1483 1482 1481 1480 1480 1478 1477 1475 1474 1472 1470 1469 1468 1466 1464 1461 1458 1458 1454 1452 1450 1447 1444 1441 1439 1436 1433 1430 1427 1423 1420 1417 1414 1412
1481 1481 1480 1480 1479 1479 1478 1477 1476 1475 1474 1473 1471 1469 1468 1467 1466 1464 1462 1460 1458 1456 1453 1449 1448 1445 1443 1440 1438 1435 1431 1428 1425 1421 1418 1415 1412 1409
1478 1477 1477 1476 1476 1475 1474 1473 1472 1471 1471 1469 1469 1468 1467 1465 1464 1462 1460 1458 1456 1455 1452 1448 1445 1443 1441 1439 1436 1433 1430 1426 1423 1419 1416 1413 1409 1406
1474 1474 1474 1473 1473 1472 1471 1470 1469 1468 1467 1467 1466 1465 1464 1463 1462 1460 1458 1456 1453 1452 1450 1448 1444 1441 1439 1437 1435 1432 1429 1425 1422 1418 1414 1411 1407 1404
1471 1471 1470 1470 1470 1469 1468 1467 1465 1465 1464 1463 1463 1462 1462 1460 1459 1458 1456 1454 1452 1450 1449 1447 1444 1441 1437 1435 1433 1431 1427 1424 1421 1417 1413 1409 1405 1401
1468 1468 1467 1467 1466 1466 1465 1464 1463 1462 1461 1461 1460 1460 1459 1458 1457 1455 1454 1453 1451 1450 1448 1446 1443 1441 1438 1434 1431 1429 1426 1422 1418 1415 1412 1408 1404 1400
1465 1465 1464 1464 1463 1463 1462 1462 1461 1460 1459 1458 1457 1457 1456 1455 1454 1453 1452 1451 1450 1449 1447 1445 1443 1440 1437 1433 1430 1427 1424 1421 1417 1414 1410 1407 1403 1399
1462 1462 1461 1461 1461 1460 1460 1459 1458 1457 1456 1455 1455 1454 1454 1453 1453 1451 1450 1449 1448 1447 1445 1443 1442 1439 1437 1434 1430 1426 1422 1419 1416 1412 1409 1405 1401 1397
1459 1459 1458 1458 1458 1457 1457 1456 1456 1455 1454 1454 1453 1452 1452 1451 1451 1450 1448 1447 1446 1445 1444 1442 1440 1438 1435 1432 1430 1426 1422 1419 1415 1411 1408 1404 1400 1396
1456 1456 1455 1455 1455 1454 1454 1453 1453 1452 1452 1451 1451 1450 1450 1449 1449 1448 1447 1446 1445 1443 1441 1440 1438 1436 1434 1432 1428 1425 1422 1418 1415 1410 1406 1402 1400 1396
1454 1453 1452 1452 1452 1451 1451 1451 1450 1450 1449 1449 1449 1449 1448 1448 1447 1446 1446 1445 1443 1442 1440 1438 1436 1435 1433 1430 1428 1424 1421 1417 1414 1410 1406 1402 1398 1396
1451 1451 1450 1450 1449 1449 1449 1449 1448 1448 1448 1448 1447 1447 1447 1447 1446 1445 1444 1443 1442 1441 1439 1438 1436 1433 1431 1429 1427 1425 1420 1416 1413 1410 1406 1402 1398 1395
1448 1448 1448 1448 1447 1447 1447 1447 1446 1446 1446 1446 1446 1445 1445 1445 1444 1444 1443 1442 1441 1440 1438 1437 1435 1433 1431 1429 1426 1423 1421 1416 1412 1409 1406 1402 1399 1397
1446 1446 1446 1445 1445 1445 1445 1445 1445 1444 1444 1444 1444 1444 1443 1443 1443 1442 1442 1441 1440 1438 1437 1436 1434 1433 1431 1429 1426 1423 1420 1417 1413 1409 1405 1402 1398 1395
1443 1443 1443 1443 1443 1443 1443 1443 1443 1443 1443 1442 1442 1442 1442 1442 1441 1441 1440 1439 1438 1438 1437 1435 1434 1432 1430 1428 1425 1422 1419 1417 1414 1411 1407 1404 1401 1397
1441 1440 1440 1440 1440 1440 1440 1441 1441 1441 1441 1441 1441 1441 1441 1440 1440 1440 1439 1439 1438 1437 1436 1434 1433 1431 1429 1427 1425 1422 1419 1416 1413 1410 1409 1406 1403 1400